CMS-02 (GSAT 24)

Last updated on Thu Mar 05 2026 00:03:00 GMT+0000 (Coordinated Universal Time)

1 52903U 22067A 26063.49030537 -.00000176 00000+0 00000+0 0 9997 2 52903 0.0484 256.1394 0002703 39.1935 126.4237 1.00272165 13552
UTC large
Height (km)
Speed (km/s)
/
Latitude / Longitude
Inclination (degrees)
Orbital Period (minutes)
Azimuth
Elevation
Range (km)
Doppler Factor

Next 0 passes for location: London (51.5072 / 0.1276)

Sorry there are no passes over London.